Regional Weather Roundup
Issued by NWS

Home | Current Version | Previous Version | Text Only | Print | Product List | Glossary Off
Versions: 1 2 3 4 5 6 7 8 9 10 11 12 13 14 15 16 17 18 19 20 21 22 23 24 25 26 27 28 29 30 31 32 33 34 35 36 37 38 39 40 41 42 43 44 45 46 47 48 49 50

000
ASUS43 KMPX 190210
RWRMN
WEATHER ROUNDUP FOR MINNESOTA
NATIONAL WEATHER SERVICE TWIN CITIES/CHANHASSEN MN
800 PM CST THU JAN 18 2018


NOTE: "FAIR" INDICATES FEW OR NO CLOUDS BELOW 12,000 FEET WITH NO
SIGNIFICANT WEATHER AND/OR OBSTRUCTIONS TO VISIBILITY. N/A MEANS
CURRENT SKY AND/OR WEATHER CONDITIONS ARE NOT AVAILABLE.

MNZ060>063-068>070-190300-
   Twin Cities Metro

CITY           SKY/WX    TMP DP  RH WIND       PRES   REMARKS
TWIN CITIES    CLOUDY    35  29  78 S6        29.77F WCI  30
ST PAUL        FAIR      30  26  85 SE9       29.78F WCI  22
CRYSTAL        FAIR      28  22  78 S6        29.75F WCI  22
BLAINE         CLOUDY    32  27  80 S6        29.75F WCI  26
LAKEVILLE      FAIR      27  25  93 CALM      29.77F
EDEN PRAIRIE   FAIR      32  27  81 S6        29.76F WCI  26
SOUTH ST PAUL  FAIR      27  23  86 CALM      29.77F
LAKE ELMO      FAIR      28  27  93 S7        29.77F WCI  21
$$
MNZ001>005-007-008-013>017-022>024-027-028-190300-
   Northwest Minnesota

CITY           SKY/WX    TMP DP  RH WIND       PRES   REMARKS
BEMIDJI        FAIR      24  22  93 S3        29.65S
HALLOCK        FAIR      25  19  80 S14       29.60F WCI  13
ROSEAU         FAIR      25  19  80 S12       29.61F WCI  14
WARROAD        FAIR      21  18  86 S3        29.62F
THIEF RVR FALL FAIR      22  19  89 S9        29.64F WCI  12
CROOKSTON      FAIR      27  21  80 S13       29.65F WCI  16
FOSSTON        FAIR      23  18  80 S13       29.64F WCI  11
DETROIT LAKES  FAIR      27  23  86 S5        29.68F WCI  21
MOORHEAD       FAIR      28  25  86 S8        29.68F WCI  20
PARK RAPIDS    FAIR      21  16  81 S5        29.66F WCI  15
MAHNOMEN       FAIR      26  20  80 S12       29.65F WCI  15
$$
MNZ006-009>011-018-025>026-190300-
   North Central Minnesota

CITY           SKY/WX    TMP DP  RH WIND       PRES   REMARKS
BAUDETTE       FAIR      26  23  88 S5        29.62F WCI  20
FLAG ISLAND    FAIR      21  21 100 S8        29.60F WCI  12
INTL FALLS     CLOUDY    27  22  81 SW6       29.66F WCI  20
WASKISH        FAIR      25  23  93 CALM      29.64F
BIG FORK       FAIR      25  21  86 CALM      29.67S
LONGVILLE      FAIR      19  19 100 CALM      29.68F
GRAND RAPIDS   FAIR      22  21  96 S3        29.69F
CRANE LAKE     CLOUDY    25  23  93 CALM      29.70R
ORR            CLOUDY    27  21  80 CALM      29.64F
COOK           CLOUDY    28  25  86 CALM      29.67F
WALKER         FAIR      27  20  75 SW5       29.66F WCI  22
$$
MNZ012-019>021-037-190300-
   Northeast Minnesota

CITY           SKY/WX    TMP DP  RH WIND       PRES   REMARKS
DULUTH         FAIR      24  21  88 CALM      29.68F
ELY            CLOUDY    27  23  86 W6        29.67S WCI  20
HIBBING        FAIR      21  20  96 CALM      29.68S
EVELETH        FAIR      25  21  83 CALM      29.70R
DULUTH HARBOR  FAIR      27  25  93 CALM      29.72F
TWO HARBORS    FAIR      27  21  80 CALM      29.67F
SILVER BAY     FAIR      27  25  93 CALM      29.68F
GRAND MARAIS     N/A     34  28  79 W3        29.70F
G MARAIS ARPRT CLOUDY    27  21  80 CALM      29.65S
$$
MNZ029>031-032-039>041-046>048-054>057-064-190300-
   West Central Minnesota

CITY           SKY/WX    TMP DP  RH WIND       PRES   REMARKS
FERGUS FALLS   FAIR      27  21  80 S6        29.70F WCI  20
WHEATON        CLOUDY    32  25  74 SW3       29.75S
MORRIS         CLOUDY    30  27  86 CALM      29.72F
ALEXANDRIA     FAIR      28  23  81 S3        29.72F
ELBOW LAKE     FAIR      27  24  88 E5        29.71F WCI  22
WADENA         FAIR      23  19  86 S5        29.68F WCI  17
GLENWOOD       FAIR      28  25  86 S3        29.72F
APPLETON       CLOUDY    34  27  75 SW5       29.74S WCI  30
BENSON         CLOUDY    30  27  86 SW3       29.74F
ORTONVILLE     CLOUDY    36  27  69 S3        29.72F
MADISON        CLOUDY    36  28  75 SW8       29.74F
WILLMAR        FAIR      30  27  86 CALM      29.76F
$$
MNZ033>034-036-042>043-049>051-058-059-190300-
   Central Minnesota

CITY           SKY/WX    TMP DP  RH WIND       PRES   REMARKS
ST CLOUD       FAIR      28  24  85 CALM      29.73F
SAUK CENTRE      N/A     27  25  93 CALM      29.73F
PAYNESVILLE    FAIR      26  25  96 CALM      29.74F
AITKIN         FAIR      18  16  93 CALM      29.69S
PINE RIVER     FAIR      19  18  93 CALM      29.73F
BRAINERD       FAIR      24  19  81 SW5       29.71S WCI  18
STAPLES        FAIR      21  19  93 S3        29.70F
LONG PRAIRIE   FAIR      25  21  86 S3        29.73S
LITTLE FALLS   FAIR      27  21  80 CALM      29.73F
LITCHFIELD     FAIR      34  30  86 SW3       29.75F
BUFFALO        FAIR      33  28  82 S5        29.76F WCI  28
MAPLE LAKE     FAIR      33  29  87 MISG      29.75F
HUTCHINSON     FAIR      33  30  87 SW7       29.76F WCI  27
$$
MNZ037-044-045-052-053-190300-
   East Central Minnesota

CITY           SKY/WX    TMP DP  RH WIND       PRES   REMARKS
PRINCETON      FAIR      32  27  80 CALM      29.74F
MORA           FAIR      19  18  93 CALM      29.75S
CAMBRIDGE      FAIR      30  21  69 S3        29.75S
RUSH CITY      FAIR      28  23  81 SW3       29.74F
MOOSE LAKE     FAIR      27  23  86 CALM      29.70S
HINCKLEY       FAIR      25  23  93 CALM      29.73F
CLOQUET        FAIR      27  23  86 SW3       29.69F
MCGREGOR       FAIR      28  25  86 S3        29.71S
$$
MNZ071>073-080-081-089-090-097-098-190300-
   Southwest Minnesota

CITY           SKY/WX    TMP DP  RH WIND       PRES   REMARKS
MONTEVIDEO     CLOUDY    36  28  75 W8        29.74F
GRANITE FALLS  CLOUDY    34  30  86 S8        29.76F WCI  27
CANBY          CLOUDY    38  28  68 SW8       29.75F
MARSHALL       CLOUDY    35  27  72 W7        29.76F WCI  29
REDWOOD FALLS  CLOUDY    32  28  85 SW14      29.76F WCI  22
OLIVIA         CLOUDY    30  27  86 SW7       29.75F WCI  23
PIPESTONE      CLOUDY    27  25  93 S5        29.78F WCI  21
WINDOM         CLOUDY    36  19  51 SW13      29.79S
WORTHINGTON    CLOUDY    34  28  79 SW13      29.79F WCI  25
JACKSON        CLOUDY    34  28  80 SW10      29.81F WCI  26
SLAYTON        CLOUDY    33  28  80 SW14      29.77F WCI  24
$$
MNZ065>067-074>077-082>085-091>093-190300-
   South Central Minnesota

CITY           SKY/WX    TMP DP  RH WIND       PRES   REMARKS
MANKATO        FAIR      34  29  82 S12       29.78F WCI  25
NEW ULM        CLOUDY    32  27  80 SW9       29.78S WCI  24
ST JAMES       CLOUDY    32  28  86 S8        29.80F WCI  25
FAIRMONT       CLOUDY    33  27  78 SW12      29.81F WCI  24
FARIBAULT      FAIR      30  27  86 S7        29.79F WCI  23
OWATONNA       FAIR      32  27  80 S12       29.80F WCI  23
WASECA         FAIR      32  28  86 S12       29.80F WCI  23
ALBERT LEA     FAIR      30  23  74 SW8       29.83S WCI  23
$$
MNZ078>079-086>088-094>096-190300-
   Southeast Minnesota

CITY           SKY/WX    TMP DP  RH WIND       PRES   REMARKS
ROCHESTER      FAIR      29  23  78 S14       29.81F WCI  18
RED WING       FAIR      28  23  80 CALM      29.80S
STANTON        FAIR      30  25  83 S5        29.77F WCI  25
DODGE CENTER   FAIR      28  23  80 S15       29.80F WCI  17
WINONA         FAIR      32  23  69 SE3       29.83S
AUSTIN         FAIR      28  21  74 SW9       29.84S WCI  20
PRESTON        FAIR      28  22  77 SW12G17   29.84F WCI  18
$$
ABBREVIATIONS USED IN REMARKS
   TC - TEMPERATURES IN CELSIUS
  WCI - WIND CHILL INDEX
   HX - HEAT INDEX
  VSB - VISIBILITY
$$



USA.gov is the U.S. government's official web portal to all federal, state and local government web resources and services.